Time,TemperatureF,DewpointF,PressureIn,WindDirection,WindDirectionDegrees,WindSpeedMPH,WindSpeedGustMPH,Humidity,HourlyPrecipIn,Conditions,Clouds,dailyrainin,SoftwareType,DateUTC
2013-01-29 00:09:00,50.8,47.0,30.12,ESE,103,0.0,-999.0,85,-99.99,,,0.00,weatherlink.com 1.10,2013-01-29 05:09:00,
2013-01-29 00:24:00,50.8,47.0,30.12,SSE,167,0.0,-999.0,87,-99.99,,,0.00,weatherlink.com 1.10,2013-01-29 05:24:00,
2013-01-29 00:39:00,51.1,48.0,30.12,South,175,0.0,-999.0,88,-99.99,,,0.00,weatherlink.com 1.10,2013-01-29 05:39:00,
2013-01-29 00:54:00,51.1,48.0,30.12,South,186,0.0,-999.0,88,-99.99,,,0.00,weatherlink.com 1.10,2013-01-29 05:54:00,
2013-01-29 01:09:00,51.1,48.0,30.11,South,188,6.0,-999.0,89,-99.99,,,0.00,weatherlink.com 1.10,2013-01-29 06:09:00,
2013-01-29 01:24:00,51.3,48.0,30.10,SSW,206,0.0,-999.0,89,-99.99,,,0.00,weatherlink.com 1.10,2013-01-29 06:24:00,
2013-01-29 01:39:00,51.3,48.0,30.10,SSW,209,0.0,-999.0,89,-99.99,,,0.00,weatherlink.com 1.10,2013-01-29 06:39:00,
2013-01-29 01:54:00,51.1,48.0,30.10,SSW,210,0.0,-999.0,89,-99.99,,,0.00,weatherlink.com 1.10,2013-01-29 06:54:00,
2013-01-29 02:09:00,50.8,48.0,30.10,SE,126,0.0,-999.0,90,-99.99,,,0.00,weatherlink.com 1.10,2013-01-29 07:09:00,
2013-01-29 02:24:00,50.5,48.0,30.10,SSW,195,0.0,-999.0,90,-99.99,,,0.00,weatherlink.com 1.10,2013-01-29 07:24:00,
2013-01-29 02:39:00,50.1,48.0,30.09,South,186,0.0,-999.0,91,-99.99,,,0.00,weatherlink.com 1.10,2013-01-29 07:39:00,
2013-01-29 02:54:00,49.8,48.0,30.10,South,175,0.0,-999.0,92,-99.99,,,0.00,weatherlink.com 1.10,2013-01-29 07:54:00,
2013-01-29 03:09:00,49.6,47.0,30.10,South,169,0.0,-999.0,92,-99.99,,,0.00,weatherlink.com 1.10,2013-01-29 08:09:00,
2013-01-29 03:24:00,49.6,47.0,30.10,South,188,0.0,-999.0,92,-99.99,,,0.00,weatherlink.com 1.10,2013-01-29 08:24:00,
2013-01-29 03:39:00,49.5,47.0,30.09,South,184,0.0,-999.0,92,-99.99,,,0.00,weatherlink.com 1.10,2013-01-29 08:39:00,
2013-01-29 03:54:00,49.4,47.0,30.08,South,169,0.0,-999.0,92,-99.99,,,0.00,weatherlink.com 1.10,2013-01-29 08:54:00,
2013-01-29 04:10:00,49.4,47.0,30.09,South,174,0.0,-999.0,92,-99.99,,,0.00,weatherlink.com 1.10,2013-01-29 09:10:00,
2013-01-29 04:24:00,49.4,47.0,30.08,South,176,0.0,-999.0,92,-99.99,,,0.00,weatherlink.com 1.10,2013-01-29 09:24:00,
2013-01-29 04:39:00,49.4,48.0,30.08,South,178,0.0,-999.0,93,-99.99,,,0.00,weatherlink.com 1.10,2013-01-29 09:39:00,
2013-01-29 04:54:00,49.4,47.0,30.07,SE,130,0.0,-999.0,92,-99.99,,,0.00,weatherlink.com 1.10,2013-01-29 09:54:00,
2013-01-29 05:09:00,49.4,47.0,30.07,SSW,202,0.0,-999.0,92,-99.99,,,0.00,weatherlink.com 1.10,2013-01-29 10:09:00,
2013-01-29 05:25:00,49.2,47.0,30.07,SW,232,0.0,-999.0,92,-99.99,,,0.00,weatherlink.com 1.10,2013-01-29 10:25:00,
2013-01-29 05:39:00,48.8,47.0,30.08,SSE,157,0.0,-999.0,92,-99.99,,,0.00,weatherlink.com 1.10,2013-01-29 10:39:00,
2013-01-29 05:54:00,48.9,47.0,30.08,SSE,167,0.0,-999.0,92,-99.99,,,0.00,weatherlink.com 1.10,2013-01-29 10:54:00,
2013-01-29 06:09:00,49.1,47.0,30.08,SE,143,6.0,-999.0,92,-99.99,,,0.00,weatherlink.com 1.10,2013-01-29 11:09:00,
2013-01-29 06:25:00,49.1,47.0,30.08,South,185,0.0,-999.0,92,-99.99,,,0.00,weatherlink.com 1.10,2013-01-29 11:25:00,
2013-01-29 06:39:00,48.9,47.0,30.09,South,169,0.0,-999.0,92,-99.99,,,0.00,weatherlink.com 1.10,2013-01-29 11:39:00,
2013-01-29 06:54:00,48.9,-99.9,30.09,SSE,155,0.0,-999.0,-999,-99.99,,,0.00,weatherlink.com 1.10,2013-01-29 11:54:00,
2013-01-29 07:10:00,48.8,47.0,30.09,South,186,0.0,-999.0,92,-99.99,,,0.00,weatherlink.com 1.10,2013-01-29 12:10:00,
2013-01-29 07:24:00,48.8,47.0,30.09,SSE,155,0.0,-999.0,92,-99.99,,,0.00,weatherlink.com 1.10,2013-01-29 12:24:00,
2013-01-29 07:40:00,48.6,46.0,30.09,SSE,150,0.0,-999.0,92,-99.99,,,0.00,weatherlink.com 1.10,2013-01-29 12:40:00,
2013-01-29 07:55:00,48.5,46.0,30.09,SW,222,0.0,-999.0,92,-99.99,,,0.00,weatherlink.com 1.10,2013-01-29 12:55:00,
2013-01-29 08:09:00,48.8,47.0,30.10,SW,215,0.0,-999.0,92,-99.99,,,0.00,weatherlink.com 1.10,2013-01-29 13:09:00,
2013-01-29 08:25:00,49.6,47.0,30.10,South,169,0.0,-999.0,90,-99.99,,,0.00,weatherlink.com 1.10,2013-01-29 13:25:00,
2013-01-29 08:40:00,50.4,47.0,30.10,SE,127,0.0,-999.0,88,-99.99,,,0.00,weatherlink.com 1.10,2013-01-29 13:40:00,
2013-01-29 08:55:00,51.4,48.0,30.10,SSW,212,0.0,-999.0,87,-99.99,,,0.00,weatherlink.com 1.10,2013-01-29 13:55:00,
2013-01-29 09:10:00,52.8,48.0,30.10,South,182,0.0,-999.0,84,-99.99,,,0.00,weatherlink.com 1.10,2013-01-29 14:10:00,
2013-01-29 09:25:00,53.8,48.0,30.10,South,176,0.0,-999.0,82,-99.99,,,0.00,weatherlink.com 1.10,2013-01-29 14:25:00,
2013-01-29 09:40:00,54.8,49.0,30.10,SSE,165,0.0,-999.0,81,-99.99,,,0.00,weatherlink.com 1.10,2013-01-29 14:40:00,
2013-01-29 09:55:00,56.0,50.0,30.10,South,189,0.0,-999.0,80,-99.99,,,0.00,weatherlink.com 1.10,2013-01-29 14:55:00,
2013-01-29 10:10:00,57.0,50.0,30.10,SW,217,0.0,-999.0,76,-99.99,,,0.00,weatherlink.com 1.10,2013-01-29 15:10:00,
2013-01-29 10:25:00,58.1,50.0,30.10,SSW,206,0.0,-999.0,74,-99.99,,,0.00,weatherlink.com 1.10,2013-01-29 15:25:00,
2013-01-29 10:40:00,59.0,50.0,30.10,SSW,202,5.0,-999.0,73,-99.99,,,0.00,weatherlink.com 1.10,2013-01-29 15:40:00,
2013-01-29 10:55:00,59.9,51.0,30.10,SW,233,7.0,-999.0,73,-99.99,,,0.00,weatherlink.com 1.10,2013-01-29 15:55:00,
2013-01-29 11:10:00,60.9,52.0,30.10,South,188,0.0,-999.0,72,-99.99,,,0.00,weatherlink.com 1.10,2013-01-29 16:10:00,
2013-01-29 11:25:00,62.0,52.0,30.09,South,184,6.0,-999.0,69,-99.99,,,0.00,weatherlink.com 1.10,2013-01-29 16:25:00,
2013-01-29 11:40:00,62.7,52.0,30.08,SE,141,0.0,-999.0,69,-99.99,,,0.00,weatherlink.com 1.10,2013-01-29 16:40:00,
2013-01-29 11:55:00,63.4,53.0,30.07,South,184,1.0,-999.0,68,-99.99,,,0.00,weatherlink.com 1.10,2013-01-29 16:55:00,
2013-01-29 12:11:00,64.3,53.0,30.06,SSW,206,0.0,-999.0,66,-99.99,,,0.00,weatherlink.com 1.10,2013-01-29 17:11:00,
2013-01-29 12:25:00,65.6,53.0,30.05,SW,236,0.0,-999.0,63,-99.99,,,0.00,weatherlink.com 1.10,2013-01-29 17:25:00,
2013-01-29 12:40:00,66.3,53.0,30.04,South,176,4.0,-999.0,63,-99.99,,,0.00,weatherlink.com 1.10,2013-01-29 17:40:00,
2013-01-29 12:56:00,67.1,53.0,30.03,South,174,0.0,-999.0,62,-99.99,,,0.00,weatherlink.com 1.10,2013-01-29 17:56:00,
2013-01-29 13:11:00,68.1,54.0,30.02,South,185,1.0,-999.0,62,-99.99,,,0.00,weatherlink.com 1.10,2013-01-29 18:11:00,
2013-01-29 13:26:00,68.9,54.0,30.01,WSW,250,0.0,-999.0,60,-99.99,,,0.00,weatherlink.com 1.10,2013-01-29 18:26:00,
2013-01-29 13:41:00,68.9,55.0,30.00,SSW,206,0.0,-999.0,61,-99.99,,,0.00,weatherlink.com 1.10,2013-01-29 18:41:00,
2013-01-29 13:56:00,69.6,55.0,30.00,WSW,244,0.0,-999.0,60,-99.99,,,0.00,weatherlink.com 1.10,2013-01-29 18:56:00,
2013-01-29 14:11:00,70.1,55.0,29.99,East,86,0.0,-999.0,59,-99.99,,,0.00,weatherlink.com 1.10,2013-01-29 19:11:00,
2013-01-29 14:26:00,70.8,55.0,29.99,SW,227,4.0,-999.0,57,-99.99,,,0.00,weatherlink.com 1.10,2013-01-29 19:26:00,
2013-01-29 14:41:00,71.5,55.0,29.98,South,178,0.0,-999.0,56,-99.99,,,0.00,weatherlink.com 1.10,2013-01-29 19:41:00,
2013-01-29 14:56:00,72.8,56.0,29.98,South,191,0.0,-999.0,55,-99.99,,,0.00,weatherlink.com 1.10,2013-01-29 19:56:00,
2013-01-29 15:11:00,72.8,55.0,29.98,SSE,148,0.0,-999.0,53,-99.99,,,0.00,weatherlink.com 1.10,2013-01-29 20:11:00,
2013-01-29 15:26:00,73.2,55.0,29.98,SSW,192,0.0,-999.0,53,-99.99,,,0.00,weatherlink.com 1.10,2013-01-29 20:26:00,
2013-01-29 15:41:00,73.5,55.0,29.97,SSW,192,2.0,-999.0,52,-99.99,,,0.00,weatherlink.com 1.10,2013-01-29 20:41:00,
2013-01-29 15:56:00,73.9,55.0,29.98,SE,133,0.0,-999.0,51,-99.99,,,0.00,weatherlink.com 1.10,2013-01-29 20:56:00,
2013-01-29 16:11:00,73.9,55.0,29.97,East,96,0.0,-999.0,52,-99.99,,,0.00,weatherlink.com 1.10,2013-01-29 21:11:00,
2013-01-29 16:26:00,73.2,54.0,29.97,SSW,206,0.0,-999.0,52,-99.99,,,0.00,weatherlink.com 1.10,2013-01-29 21:26:00,
2013-01-29 16:41:00,73.3,54.0,29.98,South,171,0.0,-999.0,52,-99.99,,,0.00,weatherlink.com 1.10,2013-01-29 21:41:00,
2013-01-29 16:56:00,72.1,54.0,29.97,SE,137,0.0,-999.0,54,-99.99,,,0.00,weatherlink.com 1.10,2013-01-29 21:56:00,
2013-01-29 17:11:00,71.6,55.0,29.97,SSE,147,0.0,-999.0,56,-99.99,,,0.00,weatherlink.com 1.10,2013-01-29 22:11:00,
2013-01-29 17:26:00,70.6,55.0,29.97,SSE,148,0.0,-999.0,58,-99.99,,,0.00,weatherlink.com 1.10,2013-01-29 22:26:00,
2013-01-29 17:41:00,69.4,55.0,29.97,SW,227,0.0,-999.0,60,-99.99,,,0.00,weatherlink.com 1.10,2013-01-29 22:41:00,
2013-01-29 17:56:00,68.3,55.0,29.97,SSE,154,0.0,-999.0,62,-99.99,,,0.00,weatherlink.com 1.10,2013-01-29 22:56:00,
2013-01-29 18:11:00,67.4,54.0,29.97,SSE,157,0.0,-999.0,63,-99.99,,,0.00,weatherlink.com 1.10,2013-01-29 23:11:00,
2013-01-29 18:26:00,66.4,54.0,29.97,SSE,157,0.0,-999.0,65,-99.99,,,0.00,weatherlink.com 1.10,2013-01-29 23:26:00,
2013-01-29 18:41:00,65.3,54.0,29.97,SSE,157,0.0,-999.0,67,-99.99,,,0.00,weatherlink.com 1.10,2013-01-29 23:41:00,
2013-01-29 18:57:00,64.3,54.0,29.97,SSE,157,0.0,-999.0,69,-99.99,,,0.00,weatherlink.com 1.10,2013-01-29 23:57:00,
2013-01-29 19:11:00,62.6,53.0,29.97,SSE,157,0.0,-999.0,72,-99.99,,,0.00,weatherlink.com 1.10,2013-01-30 00:11:00,
2013-01-29 19:26:00,61.5,54.0,29.97,SSE,157,0.0,-999.0,75,-99.99,,,0.00,weatherlink.com 1.10,2013-01-30 00:26:00,
2013-01-29 19:41:00,60.2,53.0,29.97,SSE,157,0.0,-999.0,77,-99.99,,,0.00,weatherlink.com 1.10,2013-01-30 00:41:00,
2013-01-29 19:56:00,60.1,54.0,29.97,SSE,157,0.0,-999.0,79,-99.99,,,0.00,weatherlink.com 1.10,2013-01-30 00:56:00,
2013-01-29 20:11:00,60.9,54.0,29.96,SSE,157,0.0,-999.0,77,-99.99,,,0.00,weatherlink.com 1.10,2013-01-30 01:11:00,
2013-01-29 20:26:00,61.5,54.0,29.96,East,100,0.0,-999.0,77,-99.99,,,0.00,weatherlink.com 1.10,2013-01-30 01:26:00,
2013-01-29 20:42:00,62.0,55.0,29.96,East,97,0.0,-999.0,77,-99.99,,,0.00,weatherlink.com 1.10,2013-01-30 01:42:00,
2013-01-29 20:56:00,62.3,55.0,29.96,East,97,0.0,-999.0,77,-99.99,,,0.00,weatherlink.com 1.10,2013-01-30 01:56:00,
2013-01-29 21:11:00,62.7,55.0,29.97,East,85,0.0,-999.0,77,-99.99,,,0.00,weatherlink.com 1.10,2013-01-30 02:11:00,
2013-01-29 21:27:00,62.7,55.0,29.96,ESE,104,0.0,-999.0,77,-99.99,,,0.00,weatherlink.com 1.10,2013-01-30 02:27:00,
2013-01-29 21:42:00,62.9,56.0,29.96,ESE,106,0.0,-999.0,77,-99.99,,,0.00,weatherlink.com 1.10,2013-01-30 02:42:00,
2013-01-29 21:56:00,62.6,56.0,29.96,ESE,104,0.0,-999.0,78,-99.99,,,0.00,weatherlink.com 1.10,2013-01-30 02:56:00,
2013-01-29 22:11:00,62.4,56.0,29.96,ESE,103,0.0,-999.0,79,-99.99,,,0.00,weatherlink.com 1.10,2013-01-30 03:11:00,
2013-01-29 22:26:00,62.1,56.0,29.96,ESE,103,0.0,-999.0,79,-99.99,,,0.00,weatherlink.com 1.10,2013-01-30 03:26:00,
2013-01-29 22:44:00,62.0,56.0,29.97,ESE,103,0.0,-999.0,80,-99.99,,,0.00,weatherlink.com 1.10,2013-01-30 03:44:00,
2013-01-29 22:56:00,61.5,56.0,29.97,ESE,103,0.0,-999.0,81,-99.99,,,0.00,weatherlink.com 1.10,2013-01-30 03:56:00,
2013-01-29 23:12:00,61.0,56.0,29.98,ESE,103,0.0,-999.0,83,-99.99,,,0.00,weatherlink.com 1.10,2013-01-30 04:12:00,
2013-01-29 23:29:00,60.7,56.0,29.97,ESE,103,0.0,-999.0,84,-99.99,,,0.00,weatherlink.com 1.10,2013-01-30 04:29:00,
2013-01-29 23:41:00,61.0,56.0,29.96,ESE,106,0.0,-999.0,84,-99.99,,,0.00,weatherlink.com 1.10,2013-01-30 04:41:00,
2013-01-29 23:56:00,60.7,56.0,29.95,ESE,103,0.0,-999.0,85,-99.99,,,0.00,weatherlink.com 1.10,2013-01-30 04:56:00,